Temperature
26 27 28 28 29 29 29 29 29 29 29 29 29 28 28 27 27 26 26 25 24 23 22 21 20 20 19 19 19 19 19 19 18 18 18 17 17 17 17 17 17 17 17 17
27 27 28 28 28 28 28 28 28 29 28 28 28 28 28 28 27 26 26 25 24 23 22 21 20 20 19 19 19 19 19 19 18 18 18 18 17 17 17 17 17 17 17 17
27 28 28 27 27 27 28 28 28 28 28 28 28 28 28 28 27 26 25 25 24 23 23 21 20 20 19 19 19 19 19 19 18 18 18 17 17 17 17 17 17 17 17 17
27 27 27 27 27 27 28 28 28 28 28 28 28 28 28 28 27 27 26 25 24 23 22 22 21 20 20 19 19 19 19 19 18 18 18 17 17 17 17 17 17 17 17 17
27 27 27 27 27 28 28 28 28 28 28 28 28 28 29 28 27 27 26 25 24 23 23 22 21 20 20 20 19 19 19 19 18 18 18 18 17 17 17 17 17 17 17 17
27 27 27 27 28 27 28 27 27 27 28 27 28 28 28 28 27 27 26 25 24 23 22 22 21 20 20 20 19 19 19 19 18 18 18 18 17 17 17 17 17 17 17 17
26 27 27 27 27 27 27 27 27 26 27 27 28 27 27 27 27 26 26 25 23 23 22 21 21 20 20 19 19 19 19 18 18 18 18 18 17 17 17 17 17 17 17 17
26 26 27 27 27 27 27 27 26 26 27 27 27 27 27 27 26 25 24 24 23 22 22 21 21 20 19 19 19 19 19 18 18 18 18 17 17 17 17 17 17 17 17 16
26 26 27 26 27 27 26 27 28 27 27 26 27 27 26 26 25 25 24 23 23 22 22 21 20 20 19 19 19 18 18 18 18 18 18 18 18 17 17 17 17 16 16 16
26 25 26 26 26 26 27 27 26 26 25 25 26 26 26 25 25 25 24 24 23 22 21 21 20 20 19 19 18 18 18 18 18 18 18 17 17 17 17 17 16 16 16 16
25 24 25 26 25 26 25 25 26 26 26 25 25 26 26 25 25 24 24 23 22 22 21 20 20 19 19 19 18 18 18 18 18 17 17 17 17 17 17 16 16 16 16 16
24 25 25 25 25 25 26 26 25 25 24 25 25 25 24 24 24 24 23 22 22 21 20 20 19 19 19 18 18 18 18 18 18 17 17 17 17 17 16 16 16 16 16 16
23 23 23 24 24 25 25 25 25 25 24 25 25 25 24 23 23 23 22 21 21 20 20 19 19 18 18 18 18 18 18 17 17 17 17 17 17 16 16 16 16 16 16 16
22 23 23 24 24 24 24 24 24 24 25 25 25 25 24 24 23 22 21 21 20 20 19 19 18 18 17 17 17 17 17 17 17 17 17 16 16 16 16 16 16 16 16 16
22 23 23 23 24 24 24 24 24 24 24 24 24 24 24 23 22 21 21 20 20 19 19 18 17 17 17 17 17 17 17 17 17 16 16 16 16 16 16 16 16 16 16 15
21 22 22 22 23 23 23 23 23 24 24 24 24 23 23 22 21 21 20 20 19 19 18 18 17 16 16 16 16 16 16 16 16 16 16 16 15 15 15 15 16 16 15 15
22 21 21 22 23 22 22 23 23 23 23 23 23 23 22 22 21 20 20 19 19 18 17 17 16 16 16 16 15 16 16 16 16 15 15 15 15 15 15 15 15 15 15 15
20 20 21 22 21 20 23 23 22 22 22 22 22 21 21 20 19 19 18 18 18 17 16 16 16 15 15 15 15 15 15 15 15 15 15 15 15 15 14 14 14 14 14 14
20 20 21 21 21 22 22 22 22 21 21 21 21 20 20 19 19 19 18 17 17 16 16 15 15 15 15 15 15 14 15 15 15 14 14 14 14 14 14 14 14 14 14 14
19 19 20 20 20 20 21 21 20 21 20 20 19 19 19 19 20 20 17 16 16 15 15 15 15 14 14 14 14 14 14 14 14 14 14 14 14 14 14 14 14 14 14 14
19 19 20 20 20 21 20 20 20 20 20 19 18 18 18 18 18 16 15 15 15 14 14 14 14 14 14 14 14 14 14 14 14 14 14 13 13 13 13 13 13 13 13 13
20 20 19 20 19 20 19 19 19 19 17 17 17 17 16 16 16 15 15 14 14 14 14 14 14 13 13 13 13 13 13 13 13 13 13 13 13 13 13 13 13 13 13 13
19 20 20 20 19 18 17 18 17 16 17 16 16 16 15 15 15 15 14 14 14 13 13 13 13 13 13 13 13 13 13 13 13 13 13 13 13 13 13 13 13 12 12 13
19 18 18 18 19 18 17 17 16 16 16 15 15 15 15 15 15 14 14 14 13 13 13 13 13 13 13 13 13 12 12 12 12 12 12 12 12 12 12 12 12 12 12 12
18 18 18 18 18 17 17 16 16 15 15 15 15 15 15 14 14 14 14 13 13 13 12 12 12 12 12 12 12 12 12 12 12 12 12 12 12 12 12 12 12 12 12 12
18 18 17 18 17 17 17 16 15 15 15 15 14 14 14 14 14 14 13 13 13 12 12 12 12 12 12 12 12 12 12 12 12 12 12 12 12 12 12 12 11 11 11 11
Wind_Speed
8 10 11 9 9 7 6 8 8 6 3 7 8 6 5 6 7 7 8 8 9 9 8 8 8 8 8 7 7 7 7 6 5 4 4 3 3 3 2 2 2 3 3 3
9 11 8 5 6 7 9 9 8 6 4 6 7 7 6 6 7 7 7 8 8 8 8 8 9 9 9 9 8 8 8 7 7 5 4 3 3 3 3 2 2 3 3 3
11 3 5 8 9 10 10 10 8 6 5 7 7 9 8 6 7 6 6 6 7 8 8 8 9 9 10 9 9 8 8 8 7 6 5 4 3 3 3 3 2 3 3 3
8 5 6 9 10 10 9 7 7 8 9 7 7 8 7 7 7 7 6 6 6 7 8 8 10 10 10 10 9 9 8 8 7 7 6 6 5 4 4 3 3 3 4 4
7 7 8 9 8 9 6 3 7 8 10 10 9 9 5 6 7 6 5 5 5 6 7 8 9 10 10 10 9 9 9 8 8 7 7 7 6 5 4 4 4 4 4 4
5 5 6 6 5 7 5 6 7 9 10 12 9 9 6 4 4 4 3 3 3 4 6 7 8 9 9 9 8 8 8 8 8 8 7 7 6 5 5 5 5 5 4 4
8 8 6 5 6 8 9 9 7 9 10 9 6 8 4 1 2 2 2 2 2 3 5 6 7 9 9 9 9 9 9 8 8 8 7 7 7 6 6 5 5 5 4 4
8 8 7 7 8 7 10 11 8 8 9 7 7 7 3 2 1 1 1 1 0 1 4 5 6 7 8 9 9 9 9 8 8 8 8 7 7 6 5 6 5 4 4 4
6 5 5 4 6 7 8 10 9 10 10 10 7 5 4 3 2 2 1 0 1 0 2 3 5 6 6 8 9 9 9 9 8 8 8 7 7 6 6 5 6 5 4 4
5 5 5 4 5 5 7 7 7 9 9 10 9 8 5 5 3 2 0 1 1 1 1 2 3 4 5 6 8 8 9 9 8 8 7 6 7 7 6 6 5 5 4 4
5 6 5 6 7 7 7 8 8 9 9 10 9 4 1 2 1 1 1 2 2 2 1 2 2 3 5 6 7 8 8 8 7 7 7 6 6 6 6 6 5 5 5 5
4 5 6 6 3 4 7 9 9 9 9 9 9 3 4 3 1 1 2 3 3 2 1 0 1 2 4 5 6 7 7 7 7 7 6 6 5 5 5 5 5 5 5 5
3 4 6 7 7 7 7 7 8 8 8 9 10 4 5 3 1 1 3 3 3 2 2 1 0 1 2 3 4 6 7 7 7 7 7 6 6 6 5 5 5 5 5 4
3 5 7 8 4 4 7 8 8 10 10 10 10 6 2 1 2 2 3 4 3 3 2 2 1 0 1 2 3 4 4 5 6 6 6 6 6 5 5 5 5 5 5 4
3 6 7 7 6 6 8 9 10 11 11 10 8 6 3 2 3 3 3 3 3 3 3 3 2 1 1 1 2 3 3 4 4 5 5 5 5 5 5 4 4 5 5 5
2 5 6 8 7 8 10 9 10 11 11 10 9 7 2 1 2 2 3 3 3 3 3 3 3 2 1 1 2 2 3 3 4 4 4 4 4 5 5 4 4 4 4 4
4 4 6 8 6 8 11 10 10 9 7 8 9 4 1 2 3 3 3 3 3 3 3 3 3 2 1 1 2 3 3 3 4 4 4 4 4 4 4 4 4 4 4 3
5 6 6 6 5 9 2 1 4 6 5 4 3 2 3 3 3 3 2 3 3 3 3 3 3 2 1 1 2 2 3 3 3 3 3 3 3 3 4 4 4 3 3 3
5 6 6 6 8 8 4 3 4 6 6 2 2 2 2 3 4 3 1 2 3 3 3 3 2 1 0 1 2 2 2 3 3 3 2 2 3 3 4 4 4 4 4 4
5 7 7 7 8 7 1 3 0 4 6 3 0 1 2 3 5 1 3 3 3 3 2 2 1 0 1 1 2 2 2 2 2 2 2 2 3 3 3 3 3 3 4 4
7 7 10 10 9 5 3 2 3 6 0 2 1 2 3 3 4 3 3 3 2 2 1 0 0 1 1 1 2 2 2 2 2 2 3 2 3 3 3 3 3 3 3 3
7 6 7 7 8 4 4 2 3 3 3 2 2 3 3 3 3 3 2 2 2 1 1 1 1 1 1 1 1 2 2 2 2 2 3 3 3 3 3 3 3 3 3 4
6 5 4 4 2 2 2 1 1 3 3 3 3 3 3 3 3 3 2 2 1 1 0 0 0 1 0 0 1 1 2 3 3 3 3 3 3 3 3 3 4 4 4 4
5 3 5 5 4 3 3 4 3 3 3 3 3 3 3 3 3 3 2 1 1 1 1 1 1 0 0 1 1 1 2 3 3 3 3 3 3 3 3 3 3 3 3 4
5 4 6 7 6 5 5 4 3 2 2 2 2 3 3 2 2 2 2 1 1 1 1 1 2 1 1 1 2 2 2 3 3 3 3 3 3 3 3 2 2 3 3 2
7 7 8 6 4 4 4 3 3 3 2 2 2 2 2 2 2 2 2 1 1 1 1 1 2 2 2 1 2 2 2 3 3 3 4 3 3 3 3 3 2 1 1 1
Wind_Direction
196 216 215 213 228 257 246 241 233 224 211 238 237 237 215 197 203 202 200 198 197 196 190 183 184 181 176 174 177 184 188 183 191 198 208 208 211 223 223 219 219 223 222 207
204 220 222 225 225 235 236 239 232 217 202 246 239 240 224 211 209 207 206 202 201 196 188 183 183 184 182 181 183 188 192 191 199 199 210 218 229 226 220 220 205 224 221 218
223 199 193 214 214 224 231 241 241 239 225 227 239 233 212 198 209 210 212 211 206 202 197 189 189 189 189 189 190 192 196 197 201 200 204 206 212 226 214 215 206 216 217 210
227 205 206 219 222 229 233 233 246 240 241 233 232 247 201 200 201 208 212 211 212 209 206 198 192 192 195 193 190 191 193 198 197 200 209 212 217 219 220 226 210 204 211 215
205 203 215 225 226 231 244 231 237 239 246 252 231 253 205 190 216 216 213 214 218 215 211 203 199 197 195 193 191 190 190 194 196 202 207 217 226 224 216 212 204 211 202 212
222 205 229 238 230 223 215 214 220 233 241 242 233 248 237 199 223 221 216 221 224 224 210 203 199 197 195 193 195 193 190 193 196 201 207 214 224 230 222 211 207 208 202 203
210 207 206 219 211 199 217 230 229 225 227 236 206 239 245 182 218 244 247 251 238 220 205 199 197 195 196 196 198 197 192 194 197 201 208 211 218 222 222 221 212 217 211 205
219 207 195 207 226 223 223 238 250 257 252 239 211 236 200 151 165 210 235 308 331 213 200 200 200 198 199 199 200 198 196 196 196 201 207 211 215 220 220 217 223 216 222 218
231 209 161 197 225 240 230 238 261 268 269 263 236 216 200 179 183 194 166 85 9 264 190 200 198 195 199 201 201 199 196 196 197 201 204 204 209 219 220 213 216 221 217 208
253 238 201 194 207 220 253 246 242 248 253 255 246 237 225 189 205 201 258 312 325 288 206 208 208 201 201 198 195 195 193 193 193 196 203 200 204 212 216 213 211 214 212 205
245 240 216 209 225 221 212 226 242 251 258 261 258 245 86 150 180 223 328 338 330 332 267 229 217 205 203 197 192 191 192 190 189 194 198 201 199 203 207 208 207 206 206 198
231 249 240 228 219 259 242 242 236 244 247 253 267 252 85 79 79 345 344 348 348 356 356 301 204 194 201 199 195 191 192 192 190 189 187 191 196 193 196 200 204 205 202 198
200 227 232 213 198 202 222 232 240 248 254 251 254 233 115 100 70 358 347 344 349 353 1 352 94 180 195 197 194 192 192 195 193 188 185 182 187 190 196 203 201 201 201 201
253 241 255 264 282 232 223 228 233 240 246 251 252 255 196 249 319 347 350 344 346 355 355 341 340 296 199 173 180 187 189 192 192 190 186 183 186 190 196 200 198 198 197 196
252 244 251 265 274 263 251 245 239 242 255 263 263 263 278 317 318 331 340 343 349 358 359 352 344 323 267 180 171 179 182 181 185 189 192 190 190 191 195 199 198 196 194 193
241 255 251 249 248 252 254 249 247 247 251 255 259 260 291 331 301 306 328 337 349 356 351 349 344 332 289 232 205 187 184 183 181 186 191 188 189 188 189 195 192 188 189 191
217 232 248 253 244 253 248 241 237 238 245 251 257 264 286 283 295 309 322 328 333 355 351 345 340 328 292 239 215 189 174 175 183 181 185 187 186 178 176 181 178 182 184 180
228 238 246 257 243 243 235 91 232 236 240 251 262 265 282 300 297 295 322 332 335 339 340 335 332 332 317 191 179 172 163 165 171 165 163 173 183 179 177 178 182 191 191 191
224 228 245 247 246 249 213 206 221 232 232 223 242 251 290 308 262 229 16 343 330 327 329 324 322 329 14 155 165 165 166 167 166 163 161 174 186 182 178 183 188 191 194 196
198 223 242 241 252 249 168 111 187 243 225 122 121 282 297 287 264 299 18 336 326 330 333 323 314 98 104 153 168 163 164 166 181 182 172 185 195 192 183 188 192 188 196 197
202 215 234 243 248 249 81 110 201 230 309 76 331 305 290 287 316 340 329 325 327 330 337 9 76 99 92 137 168 177 182 197 212 206 186 190 202 199 192 189 186 187 197 191
227 228 226 236 241 234 103 174 233 351 22 343 310 298 292 294 315 307 304 314 329 348 36 63 96 92 89 109 161 192 211 226 230 222 204 200 208 211 192 180 186 193 192 186
236 260 258 245 265 62 159 241 327 318 301 299 290 287 281 280 289 294 294 295 304 316 311 303 161 113 118 179 177 220 234 235 226 224 216 210 209 212 203 199 195 200 204 208
223 245 248 251 244 239 243 260 267 276 274 277 270 269 268 273 276 283 285 287 302 320 300 293 260 213 211 264 269 252 244 230 218 217 215 210 206 206 204 215 211 211 212 216
258 231 244 250 260 260 244 252 260 266 259 255 262 262 261 258 267 263 251 250 260 272 288 285 281 269 251 243 249 244 234 220 218 217 215 212 207 202 204 208 223 228 226 233
241 242 248 262 264 266 268 261 259 246 251 263 269 273 262 262 269 252 236 235 246 252 260 266 272 278 276 255 246 246 228 220 221 218 215 215 212 206 208 201 199 116 238 139
Height
1502 1499 1495 1492 1492 1491 1492 1493 1495 1493 1494 1495 1495 1496 1497 1500 1502 1503 1506 1508 1511 1513 1516 1518 1520 1522 1524 1525 1527 1528 1530 1531 1532 1534 1535 1536 1537 1537 1538 1538 1538 1538 1538 1539
1499 1495 1491 1492 1494 1495 1494 1495 1494 1493 1494 1495 1495 1495 1494 1497 1499 1502 1504 1506 1509 1512 1514 1517 1518 1520 1521 1523 1525 1526 1528 1529 1531 1532 1533 1534 1535 1536 1537 1537 1536 1536 1537 1537
1492 1490 1493 1495 1495 1496 1494 1494 1492 1494 1493 1493 1495 1495 1492 1494 1498 1501 1503 1505 1507 1509 1512 1514 1515 1517 1519 1521 1523 1524 1526 1527 1528 1530 1531 1532 1533 1534 1535 1535 1535 1534 1535 1536
1490 1490 1494 1494 1493 1493 1494 1489 1491 1493 1496 1492 1494 1497 1490 1490 1494 1497 1499 1502 1504 1507 1509 1511 1513 1515 1517 1519 1520 1522 1523 1525 1526 1527 1529 1530 1531 1532 1532 1533 1533 1533 1533 1534
1489 1490 1492 1492 1490 1490 1488 1489 1490 1491 1492 1492 1490 1494 1487 1487 1492 1493 1496 1499 1502 1504 1506 1508 1510 1512 1514 1516 1518 1520 1521 1522 1523 1525 1526 1528 1529 1530 1531 1531 1531 1531 1532 1532
1487 1489 1490 1489 1489 1490 1490 1491 1491 1490 1488 1499 1490 1494 1490 1486 1489 1491 1494 1498 1500 1502 1504 1505 1508 1510 1512 1514 1516 1517 1518 1519 1521 1522 1523 1525 1526 1527 1528 1528 1529 1530 1530 1530
1488 1487 1488 1489 1490 1490 1490 1493 1498 1500 1498 1493 1486 1492 1490 1486 1488 1491 1494 1496 1498 1500 1501 1503 1505 1506 1509 1510 1512 1514 1515 1516 1517 1519 1521 1522 1523 1524 1525 1526 1527 1528 1528 1528
1489 1488 1485 1486 1487 1488 1488 1488 1498 1505 1497 1488 1488 1489 1486 1486 1490 1492 1494 1495 1497 1498 1500 1501 1502 1504 1506 1507 1509 1511 1512 1513 1515 1516 1518 1519 1520 1522 1523 1524 1525 1526 1526 1527
1485 1486 1483 1485 1486 1485 1487 1485 1481 1489 1489 1492 1485 1484 1486 1487 1490 1491 1493 1495 1496 1497 1498 1499 1500 1502 1503 1504 1506 1508 1509 1511 1512 1514 1515 1516 1517 1519 1520 1521 1522 1524 1524 1525
1483 1489 1484 1485 1485 1485 1484 1483 1487 1491 1501 1501 1490 1488 1485 1487 1488 1490 1492 1493 1495 1496 1497 1498 1499 1500 1501 1502 1503 1505 1506 1508 1510 1511 1513 1514 1515 1516 1518 1519 1520 1521 1522 1523
1485 1489 1486 1484 1485 1484 1487 1488 1487 1486 1486 1496 1498 1491 1480 1484 1488 1490 1491 1493 1494 1495 1496 1497 1497 1498 1499 1500 1501 1502 1504 1506 1507 1509 1510 1512 1513 1514 1515 1517 1518 1519 1520 1521
1487 1486 1487 1483 1482 1483 1482 1483 1485 1493 1493 1490 1490 1491 1484 1486 1489 1491 1492 1494 1495 1495 1495 1496 1496 1496 1497 1498 1499 1501 1502 1504 1505 1506 1508 1509 1511 1512 1513 1514 1515 1517 1518 1519
1488 1490 1494 1489 1488 1485 1484 1484 1483 1485 1488 1488 1491 1491 1486 1488 1490 1492 1493 1494 1495 1495 1495 1495 1495 1495 1496 1497 1498 1499 1501 1502 1504 1505 1506 1506 1508 1509 1511 1512 1514 1515 1516 1517
1490 1488 1490 1491 1484 1481 1484 1485 1484 1485 1486 1485 1484 1484 1484 1486 1489 1492 1493 1494 1494 1495 1495 1495 1495 1495 1495 1495 1496 1497 1499 1501 1502 1503 1504 1504 1506 1507 1509 1511 1512 1513 1514 1515
1489 1488 1486 1483 1482 1482 1482 1483 1483 1484 1482 1483 1481 1482 1484 1487 1490 1492 1493 1494 1494 1494 1494 1494 1494 1494 1494 1494 1495 1496 1497 1499 1500 1501 1502 1503 1504 1506 1507 1509 1510 1511 1512 1514
1490 1489 1487 1487 1483 1483 1483 1482 1481 1481 1481 1481 1481 1484 1485 1489 1491 1492 1493 1493 1493 1493 1493 1493 1493 1493 1493 1493 1494 1495 1496 1497 1498 1499 1500 1501 1503 1504 1505 1506 1507 1509 1510 1512
1488 1490 1491 1487 1483 1485 1486 1478 1479 1480 1480 1481 1482 1484 1486 1488 1490 1491 1492 1493 1493 1493 1493 1493 1492 1492 1492 1492 1492 1493 1494 1495 1496 1497 1498 1499 1500 1501 1502 1504 1505 1506 1507 1509
1490 1490 1487 1485 1489 1496 1479 1477 1478 1480 1481 1482 1484 1486 1488 1489 1491 1492 1492 1492 1492 1492 1492 1492 1491 1491 1490 1491 1491 1492 1493 1494 1495 1495 1496 1498 1498 1499 1500 1501 1503 1504 1505 1506
1489 1490 1487 1485 1486 1481 1479 1479 1480 1482 1482 1483 1485 1487 1488 1489 1489 1489 1491 1492 1492 1492 1492 1491 1490 1490 1489 1490 1490 1491 1492 1493 1494 1494 1495 1496 1497 1497 1498 1499 1500 1501 1503 1504
1489 1489 1487 1486 1489 1487 1479 1479 1482 1484 1483 1485 1486 1487 1488 1488 1485 1486 1490 1490 1490 1490 1490 1489 1489 1489 1488 1489 1489 1490 1490 1491 1492 1493 1494 1495 1495 1496 1496 1497 1498 1499 1500 1501
1487 1488 1486 1485 1485 1477 1479 1482 1484 1488 1484 1486 1487 1487 1488 1488 1488 1490 1489 1489 1489 1489 1488 1488 1488 1488 1487 1487 1488 1488 1489 1490 1491 1492 1492 1493 1493 1494 1495 1496 1497 1497 1498 1498
1481 1481 1483 1483 1485 1483 1482 1482 1483 1484 1486 1486 1487 1487 1488 1488 1488 1489 1488 1488 1488 1487 1487 1487 1487 1487 1486 1486 1487 1487 1488 1488 1489 1490 1490 1491 1491 1492 1493 1493 1494 1495 1495 1495
1479 1478 1476 1479 1481 1482 1483 1484 1485 1486 1486 1486 1486 1487 1487 1487 1487 1487 1487 1487 1487 1486 1486 1486 1486 1486 1485 1485 1486 1486 1486 1487 1487 1487 1488 1489 1489 1490 1490 1491 1491 1492 1492 1493
1479 1482 1480 1480 1478 1481 1483 1484 1485 1485 1485 1485 1485 1486 1486 1486 1485 1485 1485 1485 1485 1485 1485 1485 1485 1485 1484 1484 1484 1485 1485 1484 1485 1485 1485 1486 1487 1487 1488 1488 1489 1489 1490 1491
1477 1480 1479 1479 1479 1481 1481 1482 1483 1483 1484 1484 1484 1484 1484 1484 1484 1484 1484 1484 1483 1483 1483 1484 1484 1483 1483 1483 1483 1483 1482 1482 1482 1482 1483 1484 1485 1485 1485 1486 1486 1487 1487 1488
1477 1478 1478 1476 1478 1479 1480 1481 1482 1482 1482 1482 1482 1482 1482 1483 1482 1482 1482 1482 1482 1481 1481 1482 1482 1481 1481 1481 1480 1480 1480 1480 1480 1480 1480 1481 1482 1482 1483 1483 1483 1484 1484 1484